This is the latest recevied weather packets stored in our database for station/object WZ8H. If no packets are shown the sender has not sent any weather packets the latest 10 day(s).
| Time | Temp. | Humidity | Pressure | Rain* | Wind** | Luminosity | Snow |
|---|---|---|---|---|---|---|---|
| 1778019634 | 10.56° C | 94% | 1007.4 hPa | 3.05 mm | - | 46 W/m² | - |
| 1778019328 | 10.56° C | 94% | 1007.4 hPa | 2.79 mm | - | 37 W/m² | - |
| 1778019023 | 10.56° C | 94% | 1007.5 hPa | 2.79 mm | - | 44 W/m² | - |
| 1778018717 | 10.56° C | 94% | 1007.4 hPa | 2.54 mm | - | 33 W/m² | - |
| 1778018410 | 10.56° C | 94% | 1007.3 hPa | 2.54 mm | - | 49 W/m² | - |
| 1778018110 | 10.56° C | 94% | 1007.3 hPa | 2.03 mm | - | 46 W/m² | - |
| 1778017782 | 10.56° C | 94% | 1007.3 hPa | 1.78 mm | - | 37 W/m² | - |
| 1778017456 | 10.56° C | 93% | 1007.2 hPa | 1.78 mm | - | 54 W/m² | - |
| 1778017152 | 10.56° C | 93% | 1007.3 hPa | 1.27 mm | - | 44 W/m² | - |
| 1778016825 | 10.56° C | 93% | 1007.3 hPa | 1.27 mm | - | 47 W/m² | - |
| 1778016522 | 10.56° C | 93% | 1007.1 hPa | 1.02 mm | - | 35 W/m² | - |
| 1778016194 | 10.56° C | 93% | 1006.9 hPa | 1.02 mm | - | 40 W/m² | - |
| 1778015892 | 10.56° C | 93% | 1006.8 hPa | 1.27 mm | - | 39 W/m² | - |
| 1778015566 | 10.56° C | 93% | 1006.6 hPa | 1.27 mm | - | 49 W/m² | - |
| 1778015262 | 11.11° C | 93% | 1006.7 hPa | 1.27 mm | - | 47 W/m² | - |
| 1778014960 | 11.11° C | 93% | 1006.8 hPa | 1.27 mm | - | 33 W/m² | - |
| 1778014635 | 11.11° C | 93% | 1006.8 hPa | 1.52 mm | - | 77 W/m² | - |
| 1778014332 | 11.11° C | 93% | 1006.7 hPa | 1.52 mm | - | 81 W/m² | - |
| 1778014004 | 11.11° C | 93% | 1006.7 hPa | 1.52 mm | - | 90 W/m² | - |
| 1778013680 | 11.11° C | 93% | 1006.9 hPa | 1.78 mm | - | 88 W/m² | - |
| 1778013352 | 11.11° C | 93% | 1007 hPa | 2.03 mm | - | 88 W/m² | - |
| 1778013024 | 11.11° C | 93% | 1007 hPa | 2.03 mm | - | 116 W/m² | - |
| 1778012722 | 11.67° C | 93% | 1007.1 hPa | 2.03 mm | - | 123 W/m² | - |
| 1778012395 | 11.67° C | 93% | 1007.4 hPa | 2.03 mm | - | 95 W/m² | - |
| 1778012088 | 11.67° C | 93% | 1007.3 hPa | 2.54 mm | - | 95 W/m² | - |
* Rain latest hour (hover to see other rain measurements)
** Current wind speed in m/s (hover to see current wind gust speed)